Tracking 18647 objects as of 29-May-2017
HD Live streaming from Space Station
objects crossing your sky now

COSMOS 2368

Track COSMOS 2368 now!
COSMOS 2368 is classified as:


NORAD ID: 26042
Int'l Code: 1999-073A
Perigee: 4,446.5 km
Apogee: 36,031.9 km
Inclination: 67.1 °
Period: 720.0 minutes
Semi major axis: 26610 km
RCS: 7.9432 m2 (large)
Launch date: December 27, 1999
Source: Commonwealth of Independent States (former USSR) (CIS)
Launch site: PLESETSK MISSILE AND SPACE COMPLEX (PKMTR)
Your satellite tracking list
Your tracking list is empty





NASA's NSSDC Master Catalog

Two Line Element Set (TLE):
1 26042U 99073A   17148.43292897 -.00000668 +00000-0 +00000-0 0  9998
2 26042 067.1013 176.2185 5934817 226.7659 354.1330 02.00753266127592
Source of the keplerian elements: AFSPC